Location: Launay
(47.2429°N, 1.5727°E)
Time: 21:00:35
(UTC+00:00)

AO-91 - Visible Passes

Search period start: 14 April 2026 00:00
Search period end: 24 April 2026 00:00
Orbit: 425 x 637 km, 97.5° (Epoch: 14 April)

Date Brightness Start Highest point End Pass type
(mag) Time Alt. Az. Time Alt. Az. Time Alt. Az.
14 Apr ? 20:04:48 10° NE 20:06:24 16° ENE 20:06:24 16° ENE visible
14 Apr ? 21:38:26 10° N 21:41:43 34° WNW 21:41:43 34° WNW visible
15 Apr ? 19:55:22 10° ENE 19:56:19 12° ENE 19:56:19 12° ENE visible
15 Apr ? 21:28:18 10° N 21:31:38 44° WNW 21:31:38 44° WNW visible
16 Apr ? 21:18:11 10° N 21:21:33 58° WNW 21:21:33 58° WNW visible
17 Apr ? 21:08:06 10° N 21:11:27 75° NNW 21:11:27 75° NNW visible
18 Apr ? 20:58:03 10° NNE 21:01:21 71° ENE 21:01:21 71° ENE visible
19 Apr ? 20:48:02 10° NNE 20:51:14 53° E 20:51:14 53° E visible
19 Apr ? 22:24:12 10° NW 22:25:19 11° WNW 22:26:26 10° W visible
20 Apr ? 20:38:03 10° NNE 20:41:07 39° E 20:41:07 39° E visible
20 Apr ? 22:13:28 10° NNW 22:15:20 14° WNW 22:16:26 13° W visible
21 Apr ? 20:28:07 10° NNE 20:30:59 29° E 20:30:59 29° E visible
21 Apr ? 22:02:59 10° NNW 22:05:20 18° WNW 22:06:18 16° W visible
22 Apr ? 20:18:16 10° NE 20:20:51 22° E 20:20:51 22° E visible
22 Apr ? 21:52:36 10° NNW 21:55:18 22° WNW 21:56:11 20° W visible
23 Apr ? 20:08:29 10° NE 20:10:43 17° E 20:10:43 17° E visible
23 Apr ? 21:42:18 10° N 21:45:15 29° WNW 21:46:02 25° W visible
